Bartow, Florida, United States (33830)
Lat: 27.90N, Lon: 81.84W
Wx Zone: FLZ052
Local Info
Past Weather Observations for Saturday, April 19, 2014

NOTE: This archive is for the closest National Weather Service station to Bartow. Information may differ from the station used for current weather conditions.

Time Weather Temperature Dewpoint Humidity Pressure Winds Precip Visibility
23:55
Overcast
63°F / 17°C 59°F / 15°C 88% 30.04 in
(1017 mb)
W 5.8 mph
(W 9 kph)
- 10SM
23:35
Overcast
63°F / 17°C 59°F / 15°C 88% 30.04 in
(1017 mb)
WNW 8.1 mph
(WNW 13 kph)
- 10SM
23:15
Overcast
61°F / 16°C 59°F / 15°C 94% 30.01 in
(1016 mb)
NW 3.5 mph
(NW 6 kph)
- 10SM
22:55
Overcast
61°F / 16°C 57°F / 14°C 88% 30.04 in
(1017 mb)
NW 5.8 mph
(NW 9 kph)
- 10SM
22:35
Overcast
63°F / 17°C 55°F / 13°C 77% 30.01 in
(1016 mb)
WNW 9.2 mph
(WNW 15 kph)
- 10SM
22:15
Overcast
63°F / 17°C 55°F / 13°C 77% 30.01 in
(1016 mb)
WNW 6.9 mph
(WNW 11 kph)
- 10SM
21:55
Overcast
63°F / 17°C 55°F / 13°C 77% 30.01 in
(1016 mb)
WNW 9.2 mph
(WNW 15 kph)
- 10SM
21:35
Overcast
63°F / 17°C 55°F / 13°C 77% 30.01 in
(1016 mb)
WNW 8.1 mph
(WNW 13 kph)
- 10SM
21:15
Overcast
64°F / 18°C 55°F / 13°C 73% 30.01 in
(1016 mb)
WNW 11.5 mph
(WNW 19 kph)
- 10SM
20:55
Overcast
64°F / 18°C 55°F / 13°C 73% 30.01 in
(1016 mb)
WNW 12.7 mph
(WNW 20 kph)
- 10SM
20:35
Mostly Cloudy
64°F / 18°C 54°F / 12°C 68% 29.98 in
(1015 mb)
WNW 11.5 mph
(WNW 19 kph)
- 10SM
20:15
Overcast
64°F / 18°C 55°F / 13°C 73% 29.98 in
(1015 mb)
W 10.4 mph
(W 17 kph)
- 10SM
19:55
Overcast
64°F / 18°C 55°F / 13°C 73% 29.98 in
(1015 mb)
W 8.1 mph
(W 13 kph)
- 10SM
19:35
Overcast
64°F / 18°C 55°F / 13°C 73% 29.98 in
(1015 mb)
SSW 9.2 mph
(SSW 15 kph)
- 10SM
19:15
Overcast
64°F / 18°C 55°F / 13°C 73% 29.98 in
(1015 mb)
SSW 8.1 mph
(SSW 13 kph)
- 10SM
18:55
Overcast
66°F / 19°C 55°F / 13°C 68% 29.98 in
(1015 mb)
SSW 10.4 mph
(SSW 17 kph)
- 10SM
18:35
Overcast
66°F / 19°C 55°F / 13°C 68% 29.98 in
(1015 mb)
SSW 9.2 mph
(SSW 15 kph)
- 10SM
18:15
Overcast
66°F / 19°C 55°F / 13°C 68% 29.98 in
(1015 mb)
SSW 11.5 mph
(SSW 19 kph)
- 10SM
17:55
Overcast
66°F / 19°C 55°F / 13°C 68% 29.98 in
(1015 mb)
SSW 11.5 mph
(SSW 19 kph)
- 10SM
17:35
Overcast
68°F / 20°C 55°F / 13°C 64% 29.95 in
(1014 mb)
SSW 16.1 mph
(SSW 26 kph)
- 10SM
17:15
Overcast
70°F / 21°C 55°F / 13°C 60% 29.95 in
(1014 mb)
SSW 13.8 mph
(SSW 22 kph)
- 10SM
16:55
Overcast
70°F / 21°C 55°F / 13°C 60% 29.95 in
(1014 mb)
SSW 12.7 mph
(SSW 20 kph)
- 10SM
16:35
Overcast
70°F / 21°C 55°F / 13°C 60% 29.95 in
(1014 mb)
SSW 15 mph
(SSW 24 kph)
- 10SM
15:50
Mostly Cloudy
70°F / 21°C 55°F / 13°C 60% 29.95 in
(1014 mb)
SSW 17.3 mph
(SSW 28 kph)
- 10SM
14:50
Mostly Cloudy
72°F / 22°C 55°F / 13°C 57% 29.95 in
(1014 mb)
SSW 17.3 mph
(SSW 28 kph)
- 10SM
13:50
Mostly Cloudy
72°F / 22°C 57°F / 14°C 61% 29.95 in
(1014 mb)
SSW 18.4 mph
(SSW 30 kph)
- 10SM
12:50
Mostly Cloudy
73°F / 23°C 57°F / 14°C 57% 29.95 in
(1014 mb)
SW 15 mph
(SW 24 kph)
- 10SM
11:47
Mostly Cloudy
72°F / 22°C 61°F / 16°C 69% 29.95 in
(1014 mb)
SSW 12.7 mph
(SSW 20 kph)
- 10SM
10:47
Mostly Cloudy
70°F / 21°C 61°F / 16°C 73% 29.98 in
(1015 mb)
SSW 12.7 mph
(SSW 20 kph)
- 10SM
09:47
Mostly Cloudy
70°F / 21°C 61°F / 16°C 73% 29.98 in
(1015 mb)
SSW 17.3 mph
(SSW 28 kph)
- 10SM
08:47
Mostly Cloudy
70°F / 21°C 61°F / 16°C 73% 29.95 in
(1014 mb)
SSW 16.1 mph
(SSW 26 kph)
- 10SM
07:47
Mostly Cloudy
68°F / 20°C 64°F / 18°C 88% 29.95 in
(1014 mb)
SW 13.8 mph
(SW 22 kph)
- 10SM
06:47
Mostly Cloudy
66°F / 19°C N/A N/A 29.95 in
(1014 mb)
SW 11.5 mph
(SW 19 kph)
- 10SM
06:15
Overcast
66°F / 19°C N/A N/A 29.95 in
(1014 mb)
Calm - 10SM
05:55
Overcast
66°F / 19°C N/A N/A 29.95 in
(1014 mb)
Calm - 10SM
05:35
Partly Cloudy
66°F / 19°C N/A N/A 29.92 in
(1013 mb)
Calm - 10SM
05:15
Partly Cloudy
66°F / 19°C N/A N/A 29.92 in
(1013 mb)
Calm - 9SM
04:55
Partly Cloudy
64°F / 18°C N/A N/A 29.92 in
(1013 mb)
Calm - 8SM
04:35
Partly Cloudy
66°F / 19°C N/A N/A 29.92 in
(1013 mb)
Calm - 9SM
04:15
Partly Cloudy
64°F / 18°C N/A N/A 29.92 in
(1013 mb)
Calm - 10SM
03:55
Clear
64°F / 18°C N/A N/A 29.92 in
(1013 mb)
Calm - 10SM
03:35
Clear
66°F / 19°C N/A N/A 29.92 in
(1013 mb)
Calm - 10SM
03:15
Clear
66°F / 19°C N/A N/A 29.92 in
(1013 mb)
Calm - 10SM
02:55
Clear
Hazy
66°F / 19°C N/A N/A 29.92 in
(1013 mb)
Calm - 6SM
02:35
Partly Cloudy
66°F / 19°C N/A N/A 29.92 in
(1013 mb)
Calm - 7SM
02:15
Partly Cloudy
Fog And Mist
66°F / 19°C N/A N/A 29.92 in
(1013 mb)
Calm - 2 1/2SM
01:55
Partly Cloudy
66°F / 19°C N/A N/A 29.92 in
(1013 mb)
Calm - 8SM
01:35
Mostly Cloudy
66°F / 19°C N/A N/A 29.95 in
(1014 mb)
Calm - 10SM
01:15
Mostly Cloudy
66°F / 19°C N/A N/A 29.95 in
(1014 mb)
Calm - 10SM
00:55
Mostly Cloudy
66°F / 19°C N/A N/A 29.95 in
(1014 mb)
Calm - 10SM
00:35
Overcast
66°F / 19°C N/A N/A 29.95 in
(1014 mb)
Calm - 10SM
00:15
Overcast
66°F / 19°C N/A N/A 29.95 in
(1014 mb)
Calm - 10SM
Time Weather Temperature Dewpoint Humidity Pressure Winds Precip Visibility


Weather for websites

WeatherForYou.com, LLC is not responsible for any damages or problems caused by this service. Current weather conditions are obtained from the closest station including government and personal stations which may have varying degrees of accuracy. Weather forecasts are derived from the NOAA NDFD. Like all things, this site belongs to Jesus Christ... He just trusts me to maintain it. If you have any questions or comments email webmaster@weatherforyou.com

Copyright © 2014, WeatherForYou.com LLC. All rights reserved.